Location: Campillo
(40.8621°N, 4.2488°W)
Time: 21:20:31
(UTC+00:00)

USA 308 - Visible Passes

Search period start: 19 September 2021 00:00
Search period end: 29 September 2021 00:00
Orbit: 562 x 578 km, 54.0° (Epoch: 15 September)

Date Brightness Start Highest point End Pass type
(mag) Time Alt. Az. Time Alt. Az. Time Alt. Az.
19 Sep 5.2 19:15:57 10° WNW 19:19:02 19° NNW 19:22:09 10° NNE visible
19 Sep 5.5 20:58:05 10° NNW 21:00:22 14° N 21:00:23 14° N visible
20 Sep 5.3 19:17:42 10° NW 19:20:28 17° NNW 19:23:13 10° NNE visible
20 Sep 5.5 20:59:22 10° NNW 21:01:19 15° N 21:01:19 15° N visible
21 Sep 5.4 19:19:26 10° NW 19:21:53 15° N 19:24:22 10° NNE visible
21 Sep 5.4 21:00:31 10° NNW 21:02:15 15° N 21:02:15 15° N visible
22 Sep 5.4 19:21:05 10° NW 19:23:21 14° N 19:25:37 10° NNE visible
22 Sep 5.4 21:01:35 10° NNW 21:03:10 16° N 21:03:10 16° N visible
23 Sep 5.3 19:22:36 10° NNW 19:24:49 14° N 19:27:01 10° NNE visible
23 Sep 5.4 21:02:37 10° NNW 21:04:05 17° NNW 21:04:05 17° NNW visible
24 Sep 5.3 19:23:56 10° NNW 19:26:16 14° N 19:28:36 10° NE visible
24 Sep 5.4 21:03:37 10° NW 21:05:01 18° NNW 21:05:01 18° NNW visible
25 Sep 5.1 19:25:08 10° NNW 19:27:42 15° N 19:29:54 11° NE visible
25 Sep 5.4 21:04:37 10° NW 21:05:57 18° NNW 21:05:57 18° NNW visible
26 Sep 4.9 19:26:13 10° NNW 19:29:06 17° NNE 19:30:52 14° NE visible
26 Sep 5.4 21:05:38 10° NW 21:06:55 19° NW 21:06:55 19° NW visible
27 Sep 4.6 19:27:14 10° NNW 19:30:28 21° NNE 19:31:51 18° NE visible
27 Sep 5.5 21:06:42 10° NW 21:07:55 19° NW 21:07:55 19° NW visible
28 Sep 4.3 19:28:13 10° NNW 19:31:47 25° NNE 19:32:54 23° NE visible
28 Sep 5.6 21:07:49 10° NW 21:08:58 18° NW 21:08:58 18° NW visible
